Location: Kaikalui
(16.5250°N, 81.1500°E)
Time: 01:01:52
(UTC+00:00)

Meteor 2-5 Rocket - Pass Details

Date: 14 April 2026
Orbit: 831 x 911 km, 81.2° (Epoch: 9 May)

Event Time Altitude Azimuth Distance (km) Brightness Sun altitude
Rises 14:35:05 0° 346° (NNW) 3,379 7.3 -25.0°
Reaches altitude 10° 14:37:31 10° 342° (NNW) 2,451 6.5 -25.6°
Maximum altitude 14:42:54 54° 266° (W) 1,027 4.3 -26.8°
Enters shadow 14:46:58 18° 195° (SSW) 1,977 5.5 -27.7°
